Flag for Canada Weather past 2 weeks in Cranbrook, British Columbia, Canada

Now
27 °F

Ice fog.


Feels Like: 27 °F
Forecast: 17 / 31 °F
Wind: No wind

Location: Cranbrook

Current Time: Dec 22, 2014 at 6:09:49 PM

Latest Report: Dec 22, 2014 at 5:00 PM


Visibility: 0 mi

Pressure: 30.27 "Hg

Humidity: 100%

Dew point: 27 °F

Location of CranbrookLocation

Historic Weather in Cranbrook — Graph

°F

Cranbrook temperature yesterday

Maximum temperature yesterday: 39 °F (at 4:00 PM)
Minimum temperature yesterday: 25 °F (at 11:00 PM)
Average temperature yesterday: 32 °F

Past Weeks' High & Low Weather Summary

 TemperatureHumidityPressure
High45 °F (Dec 12, 2:00 PM)100% (Dec 7, 11:00 PM)30.44 "Hg (Dec 7, 11:00 PM)
Low18 °F (Dec 15, 3:00 AM)64% (Dec 14, 4:00 PM)29.46 "Hg (Dec 21, 7:00 AM)
Average31 °F87%30.02 "Hg
* Reported Dec 7 5:00 PM — Dec 22 5:00 PM, Cranbrook, Weather by CustomWeather, © 2014

Note: Actual official high and low records may vary slightly from our data, if they occured in-between our weather recording intervals... More about our weather records

Advertising

Cranbrook weather history for previous 24 hours

 ConditionsComfort  
Time TempWeatherWind HumidityBarometerVisibility
5:00 PM
Dec 22
27 °FIce fog.No wind100%30.27 "Hg0 mi
4:00 PM28 °FIce fog.No wind93%30.25 "Hg0 mi
3:00 PM28 °FIce fog.No wind93%30.22 "Hg0 mi
2:47 PM28 °FIce fog.2 mph93%30.21 "Hg0 mi
2:00 PM28 °FIce fog.No wind100%30.19 "Hg0 mi
1:00 PM28 °FIce fog.2 mph93%30.18 "Hg1 mi
12:51 PM28 °FIce fog.No wind93%30.17 "Hg0 mi
12:00 PM27 °FIce fog.3 mph100%30.16 "Hg0 mi
11:00 AM27 °FIce fog.2 mph93%30.14 "Hg0 mi
10:00 AM25 °FIce fog.No wind93%30.10 "Hg0 mi
9:00 AM19 °FPassing clouds.No wind93%30.07 "Hg25 mi
8:00 AM21 °FPassing clouds.2 mph86%30.01 "Hg25 mi
7:00 AM23 °FPartly cloudy.6 mph86%29.99 "Hg8 mi
6:00 AM21 °FIce fog.No wind93%29.98 "Hg0 mi
5:00 AM23 °FIce fog.2 mph93%29.96 "Hg1 mi
4:00 AM23 °FPassing clouds.No wind93%29.93 "Hg15 mi
3:00 AM23 °FPassing clouds.No wind100%29.92 "Hg15 mi
2:00 AM25 °FIce fog.No wind93%29.91 "Hg1 mi
1:00 AM25 °FIce fog.No wind100%29.90 "Hg1 mi
12:00 AM27 °FPassing clouds.2 mph93%29.90 "Hg15 mi
11:00 PM
Dec 21
25 °FPassing clouds.5 mph93%29.89 "Hg20 mi
10:00 PM28 °FPassing clouds.5 mph86%29.88 "Hg20 mi
9:00 PM32 °FPassing clouds.7 mph87%29.85 "Hg15 mi
8:00 PM30 °FPassing clouds.6 mph93%29.85 "Hg15 mi
7:07 PM30 °FPassing clouds.No wind93%29.84 "Hg15 mi
6:00 PM30 °FPassing clouds.3 mph93%29.83 "Hg15 mi
Weather by CustomWeather, © 2014

See weather overviewHow to use our weather pages